Year,Month,Day,Hour,Minute,Value (Times are PST for temperature in C)
2016,02,24,00,00,4.30
2016,02,24,00,01,4.30
2016,02,24,00,02,4.30
2016,02,24,00,03,4.30
2016,02,24,00,04,4.30
2016,02,24,00,05,4.30
2016,02,24,00,06,4.30
2016,02,24,00,07,4.30
2016,02,24,00,08,4.30
2016,02,24,00,09,4.30
2016,02,24,00,10,4.30
2016,02,24,00,11,4.30
2016,02,24,00,12,4.30
2016,02,24,00,13,4.30
2016,02,24,00,14,4.30
2016,02,24,00,15,4.30
2016,02,24,00,16,4.30
2016,02,24,00,17,4.20
2016,02,24,00,18,4.30
2016,02,24,00,19,4.20
2016,02,24,00,20,4.30
2016,02,24,00,21,4.30
2016,02,24,00,22,4.30
2016,02,24,00,23,4.30
2016,02,24,00,24,4.30
2016,02,24,00,25,4.30
2016,02,24,00,26,4.30
2016,02,24,00,27,4.30
2016,02,24,00,28,4.30
2016,02,24,00,29,4.30
2016,02,24,00,30,4.30
2016,02,24,00,31,4.30
2016,02,24,00,32,4.30
2016,02,24,00,33,4.30
2016,02,24,00,34,4.30
2016,02,24,00,35,4.30
2016,02,24,00,36,4.30
2016,02,24,00,37,4.30
2016,02,24,00,38,4.30
2016,02,24,00,39,4.30
2016,02,24,00,40,4.30
2016,02,24,00,41,4.20
2016,02,24,00,42,4.20
2016,02,24,00,43,4.20
2016,02,24,00,44,4.20
2016,02,24,00,45,4.20
2016,02,24,00,46,4.20
2016,02,24,00,47,4.20
2016,02,24,00,48,4.20
2016,02,24,00,49,4.20
2016,02,24,00,50,4.20
2016,02,24,00,51,4.20
2016,02,24,00,52,4.20
2016,02,24,00,53,4.20
2016,02,24,00,54,4.20
2016,02,24,00,55,4.20
2016,02,24,00,56,4.20
2016,02,24,00,57,4.20
2016,02,24,00,58,4.20
2016,02,24,00,59,4.20
2016,02,24,01,00,4.20
2016,02,24,01,01,4.20
2016,02,24,01,02,4.10
2016,02,24,01,03,4.10
2016,02,24,01,04,4.10
2016,02,24,01,05,4.10
2016,02,24,01,06,4.10
2016,02,24,01,07,4.10
2016,02,24,01,08,4.10
2016,02,24,01,09,4.10
2016,02,24,01,10,4.10
2016,02,24,01,11,4.10
2016,02,24,01,12,4.10
2016,02,24,01,13,4.10
2016,02,24,01,14,4.10
2016,02,24,01,15,4.10
2016,02,24,01,16,4.10
2016,02,24,01,17,4.10
2016,02,24,01,18,4.10
2016,02,24,01,19,4.10
2016,02,24,01,20,4.10
2016,02,24,01,21,4.10
2016,02,24,01,22,4.10
2016,02,24,01,23,4.10
2016,02,24,01,24,4.10
2016,02,24,01,25,4.10
2016,02,24,01,26,4.10
2016,02,24,01,27,4.00
2016,02,24,01,28,4.00
2016,02,24,01,29,4.00
2016,02,24,01,30,4.00
2016,02,24,01,31,4.00
2016,02,24,01,32,4.00
2016,02,24,01,33,4.00
2016,02,24,01,34,4.00
2016,02,24,01,35,4.00
2016,02,24,01,36,4.00
2016,02,24,01,37,4.00
2016,02,24,01,38,4.00
2016,02,24,01,39,4.00
2016,02,24,01,40,4.00
2016,02,24,01,41,4.00
2016,02,24,01,42,4.00
2016,02,24,01,43,4.00
2016,02,24,01,44,4.00
2016,02,24,01,45,4.00
2016,02,24,01,46,4.00
2016,02,24,01,47,4.00
2016,02,24,01,48,4.00
2016,02,24,01,49,4.00
2016,02,24,01,50,3.90
2016,02,24,01,51,3.90
2016,02,24,01,52,3.90
2016,02,24,01,53,3.90
2016,02,24,01,54,3.90
2016,02,24,01,55,3.90
2016,02,24,01,56,3.90
2016,02,24,01,57,3.90
2016,02,24,01,58,3.90
2016,02,24,01,59,3.90
2016,02,24,02,00,3.90
2016,02,24,02,01,3.90
2016,02,24,02,02,3.90
2016,02,24,02,03,3.90
2016,02,24,02,04,3.90
2016,02,24,02,05,3.90
2016,02,24,02,06,3.90
2016,02,24,02,07,3.90
2016,02,24,02,08,3.90
2016,02,24,02,09,3.90
2016,02,24,02,10,3.90
2016,02,24,02,11,3.90
2016,02,24,02,12,3.90
2016,02,24,02,13,3.90
2016,02,24,02,14,3.90
2016,02,24,02,15,3.90
2016,02,24,02,16,3.90
2016,02,24,02,17,3.90
2016,02,24,02,18,3.90
2016,02,24,02,19,3.90
2016,02,24,02,20,3.90
2016,02,24,02,21,3.90
2016,02,24,02,22,3.90
2016,02,24,02,23,3.90
2016,02,24,02,24,3.90
2016,02,24,02,25,3.90
2016,02,24,02,26,3.90
2016,02,24,02,27,3.90
2016,02,24,02,28,3.90
2016,02,24,02,29,3.90
2016,02,24,02,30,3.90
2016,02,24,02,31,3.90
2016,02,24,02,32,3.90
2016,02,24,02,33,3.80
2016,02,24,02,34,3.80
2016,02,24,02,35,3.80
2016,02,24,02,36,3.80
2016,02,24,02,37,3.80
2016,02,24,02,38,3.80
2016,02,24,02,39,3.80
2016,02,24,02,40,3.80
2016,02,24,02,41,3.80
2016,02,24,02,42,3.80
2016,02,24,02,43,3.80
2016,02,24,02,44,3.80
2016,02,24,02,45,3.70
2016,02,24,02,46,3.70
2016,02,24,02,47,3.70
2016,02,24,02,48,3.70
2016,02,24,02,49,3.70
2016,02,24,02,50,3.70
2016,02,24,02,51,3.70
2016,02,24,02,52,3.70
2016,02,24,02,53,3.70
2016,02,24,02,54,3.70
2016,02,24,02,55,3.70
2016,02,24,02,56,3.70
2016,02,24,02,57,3.70
2016,02,24,02,58,3.70
2016,02,24,02,59,3.70
2016,02,24,03,00,3.70
2016,02,24,03,01,3.70
2016,02,24,03,02,3.70
2016,02,24,03,03,3.70
2016,02,24,03,04,3.70
2016,02,24,03,05,3.70
2016,02,24,03,06,3.70
2016,02,24,03,07,3.70
2016,02,24,03,08,3.70
2016,02,24,03,09,3.70
2016,02,24,03,10,3.70
2016,02,24,03,11,3.70
2016,02,24,03,12,3.70
2016,02,24,03,13,3.70
2016,02,24,03,14,3.70
2016,02,24,03,15,3.60
2016,02,24,03,16,3.70
2016,02,24,03,17,3.70
2016,02,24,03,18,3.70
2016,02,24,03,19,3.60
2016,02,24,03,20,3.60
2016,02,24,03,21,3.60
2016,02,24,03,22,3.60
2016,02,24,03,23,3.60
2016,02,24,03,24,3.60
2016,02,24,03,25,3.70
2016,02,24,03,26,3.70
2016,02,24,03,27,3.70
2016,02,24,03,28,3.70
2016,02,24,03,29,3.70
2016,02,24,03,30,3.70
2016,02,24,03,31,3.70
2016,02,24,03,32,3.70
2016,02,24,03,33,3.70
2016,02,24,03,34,3.70
2016,02,24,03,35,3.70
2016,02,24,03,36,3.70
2016,02,24,03,37,3.70
2016,02,24,03,38,3.70
2016,02,24,03,39,3.70
2016,02,24,03,40,3.70
2016,02,24,03,41,3.70
2016,02,24,03,42,3.70
2016,02,24,03,43,3.80
2016,02,24,03,44,3.80
2016,02,24,03,45,3.80
2016,02,24,03,46,3.80
2016,02,24,03,47,3.80
2016,02,24,03,48,3.80
2016,02,24,03,49,3.80
2016,02,24,03,50,3.80
2016,02,24,03,51,3.80
2016,02,24,03,52,3.80
2016,02,24,03,53,3.80
2016,02,24,03,54,3.80
2016,02,24,03,55,3.80
2016,02,24,03,56,3.80
2016,02,24,03,57,3.80
2016,02,24,03,58,3.80
2016,02,24,03,59,3.80
2016,02,24,04,00,3.80
2016,02,24,04,01,3.80
2016,02,24,04,02,3.80
2016,02,24,04,03,3.80
2016,02,24,04,04,3.80
2016,02,24,04,05,3.80
2016,02,24,04,06,3.80
2016,02,24,04,07,3.80
2016,02,24,04,08,3.80
2016,02,24,04,09,3.80
2016,02,24,04,10,3.80
2016,02,24,04,11,3.80
2016,02,24,04,12,3.80
2016,02,24,04,13,3.80
2016,02,24,04,14,3.80
2016,02,24,04,15,3.80
2016,02,24,04,16,3.80
2016,02,24,04,17,3.80
2016,02,24,04,18,3.80
2016,02,24,04,19,3.80
2016,02,24,04,20,3.80
2016,02,24,04,21,3.80
2016,02,24,04,22,3.80
2016,02,24,04,23,3.80
2016,02,24,04,24,3.80
2016,02,24,04,25,3.80
2016,02,24,04,26,3.80
2016,02,24,04,27,3.80
2016,02,24,04,28,3.80
2016,02,24,04,29,3.80
2016,02,24,04,30,3.80
2016,02,24,04,31,3.80
2016,02,24,04,32,3.80
2016,02,24,04,33,3.80
2016,02,24,04,34,3.80
2016,02,24,04,35,3.80
2016,02,24,04,36,3.80
2016,02,24,04,37,3.90
2016,02,24,04,38,3.90
2016,02,24,04,39,3.90
2016,02,24,04,40,3.90
2016,02,24,04,41,3.90
2016,02,24,04,42,3.90
2016,02,24,04,43,3.90
2016,02,24,04,44,3.90
2016,02,24,04,45,3.90
2016,02,24,04,46,3.90
2016,02,24,04,47,3.90
2016,02,24,04,48,3.90
2016,02,24,04,49,3.90
2016,02,24,04,50,3.90
2016,02,24,04,51,3.90
2016,02,24,04,52,3.90
2016,02,24,04,53,3.90
2016,02,24,04,54,3.90
2016,02,24,04,55,3.90
2016,02,24,04,56,3.90
2016,02,24,04,57,3.80
2016,02,24,04,58,3.80
2016,02,24,04,59,3.80
2016,02,24,05,00,3.80
2016,02,24,05,01,3.80
2016,02,24,05,02,3.80
2016,02,24,05,03,3.70
2016,02,24,05,04,3.70
2016,02,24,05,05,3.70
2016,02,24,05,06,3.60
2016,02,24,05,07,3.60
2016,02,24,05,08,3.50
2016,02,24,05,09,3.50
2016,02,24,05,10,3.50
2016,02,24,05,11,3.40
2016,02,24,05,12,3.40
2016,02,24,05,13,3.40
2016,02,24,05,14,3.30
2016,02,24,05,15,3.30
2016,02,24,05,16,3.20
2016,02,24,05,17,3.20
2016,02,24,05,18,3.20
2016,02,24,05,19,3.20
2016,02,24,05,20,3.10
2016,02,24,05,21,3.10
2016,02,24,05,22,3.10
2016,02,24,05,23,3.00
2016,02,24,05,24,3.00
2016,02,24,05,25,3.00
2016,02,24,05,26,3.00
2016,02,24,05,27,3.00
2016,02,24,05,28,3.00
2016,02,24,05,29,3.00
2016,02,24,05,30,2.90
2016,02,24,05,31,2.90
2016,02,24,05,32,2.90
2016,02,24,05,33,2.90
2016,02,24,05,34,2.90
2016,02,24,05,35,2.80
2016,02,24,05,36,2.80
2016,02,24,05,37,2.80
2016,02,24,05,38,2.80
2016,02,24,05,39,2.80
2016,02,24,05,40,2.70
2016,02,24,05,41,2.70
2016,02,24,05,42,2.70
2016,02,24,05,43,2.70
2016,02,24,05,44,2.70
2016,02,24,05,45,2.70
2016,02,24,05,46,2.80
2016,02,24,05,47,2.80
2016,02,24,05,48,2.80
2016,02,24,05,49,2.80
2016,02,24,05,50,2.80
2016,02,24,05,51,2.80
2016,02,24,05,52,2.80
2016,02,24,05,53,2.80
2016,02,24,05,54,2.90
2016,02,24,05,55,2.90
2016,02,24,05,56,2.90
2016,02,24,05,57,2.90
2016,02,24,05,58,2.90
2016,02,24,05,59,2.90
2016,02,24,06,00,3.00
2016,02,24,06,01,3.00
2016,02,24,06,02,3.00
2016,02,24,06,03,3.00
2016,02,24,06,04,3.00
2016,02,24,06,05,3.00
2016,02,24,06,06,3.00
2016,02,24,06,07,3.00
2016,02,24,06,08,3.00
2016,02,24,06,09,3.00
2016,02,24,06,10,3.00
2016,02,24,06,11,3.00
2016,02,24,06,12,3.00
2016,02,24,06,13,3.00
2016,02,24,06,14,3.10
2016,02,24,06,15,3.10
2016,02,24,06,16,3.10
2016,02,24,06,17,3.10
2016,02,24,06,18,3.10
2016,02,24,06,19,3.10
2016,02,24,06,20,3.10
2016,02,24,06,21,3.10
2016,02,24,06,22,3.10
2016,02,24,06,23,3.10
2016,02,24,06,24,3.10
2016,02,24,06,25,3.10
2016,02,24,06,26,3.00
2016,02,24,06,27,3.00
2016,02,24,06,28,3.00
2016,02,24,06,29,2.90
2016,02,24,06,30,2.90
2016,02,24,06,31,2.90
2016,02,24,06,32,2.90
2016,02,24,06,33,2.90
2016,02,24,06,34,2.90
2016,02,24,06,35,2.80
2016,02,24,06,36,2.80
2016,02,24,06,37,2.80
2016,02,24,06,38,2.80
2016,02,24,06,39,2.70
2016,02,24,06,40,2.70
2016,02,24,06,41,2.70
2016,02,24,06,42,2.70
2016,02,24,06,43,2.70
2016,02,24,06,44,2.70
2016,02,24,06,45,2.60
2016,02,24,06,46,2.60
2016,02,24,06,47,2.60
2016,02,24,06,48,2.60
2016,02,24,06,49,2.60
2016,02,24,06,50,2.60
2016,02,24,06,51,2.60
2016,02,24,06,52,2.60
2016,02,24,06,53,2.60
2016,02,24,06,54,2.60
2016,02,24,06,55,2.50
2016,02,24,06,56,2.50
2016,02,24,06,57,2.50
2016,02,24,06,58,2.50
2016,02,24,06,59,2.40
2016,02,24,07,00,2.40
2016,02,24,07,01,2.40
2016,02,24,07,02,2.40
2016,02,24,07,03,2.40
2016,02,24,07,04,2.40
2016,02,24,07,05,2.40
2016,02,24,07,06,2.40
2016,02,24,07,07,2.40
2016,02,24,07,08,2.40
2016,02,24,07,09,2.40
2016,02,24,07,10,2.30
2016,02,24,07,11,2.30
2016,02,24,07,12,2.30
2016,02,24,07,13,2.30
2016,02,24,07,14,2.30
2016,02,24,07,15,2.30
2016,02,24,07,16,2.20
2016,02,24,07,17,2.20
2016,02,24,07,18,2.20
2016,02,24,07,19,2.20
2016,02,24,07,20,2.20
2016,02,24,07,21,2.20
2016,02,24,07,22,2.20
2016,02,24,07,23,2.20
2016,02,24,07,24,2.20
2016,02,24,07,25,2.20
2016,02,24,07,26,2.20
2016,02,24,07,27,2.20
2016,02,24,07,28,2.20
2016,02,24,07,29,2.20
2016,02,24,07,30,2.30
2016,02,24,07,31,2.30
2016,02,24,07,32,2.30
2016,02,24,07,33,2.40
2016,02,24,07,34,2.40
2016,02,24,07,35,2.40
2016,02,24,07,36,2.40
2016,02,24,07,37,2.50
2016,02,24,07,38,2.50
2016,02,24,07,39,2.50
2016,02,24,07,40,2.50
2016,02,24,07,41,2.50
2016,02,24,07,42,2.50
2016,02,24,07,43,2.50
2016,02,24,07,44,2.50
2016,02,24,07,45,2.50
2016,02,24,07,46,2.40
2016,02,24,07,47,2.40
2016,02,24,07,48,2.40
2016,02,24,07,49,2.40
2016,02,24,07,50,2.40
2016,02,24,07,51,2.40
2016,02,24,07,52,2.40
2016,02,24,07,53,2.40
2016,02,24,07,54,2.40
2016,02,24,07,55,2.30
2016,02,24,07,56,2.30
2016,02,24,07,57,2.30
2016,02,24,07,58,2.30
2016,02,24,07,59,2.30
2016,02,24,08,00,2.30
2016,02,24,08,01,2.30
2016,02,24,08,02,2.30
2016,02,24,08,03,2.30
2016,02,24,08,04,2.30
2016,02,24,08,05,2.30
2016,02,24,08,06,2.30
2016,02,24,08,07,2.30
2016,02,24,08,08,2.30
2016,02,24,08,09,2.30
2016,02,24,08,10,2.30
2016,02,24,08,11,2.30
2016,02,24,08,12,2.30
2016,02,24,08,13,2.30
2016,02,24,08,14,2.40
2016,02,24,08,15,2.40
2016,02,24,08,16,2.50
2016,02,24,08,17,2.50
2016,02,24,08,18,2.50
2016,02,24,08,19,2.60
2016,02,24,08,20,2.60
2016,02,24,08,21,2.60
2016,02,24,08,22,2.60
2016,02,24,08,23,2.60
2016,02,24,08,24,2.60
2016,02,24,08,25,2.60
2016,02,24,08,26,2.60
2016,02,24,08,27,2.60
2016,02,24,08,28,2.70
2016,02,24,08,29,2.70
2016,02,24,08,30,2.70
2016,02,24,08,31,2.70
2016,02,24,08,32,2.70
2016,02,24,08,33,2.80
2016,02,24,08,34,2.80
2016,02,24,08,35,2.80
2016,02,24,08,36,2.80
2016,02,24,08,37,2.90
2016,02,24,08,38,2.90
2016,02,24,08,39,2.90
2016,02,24,08,40,3.00
2016,02,24,08,41,3.00
2016,02,24,08,42,3.10
2016,02,24,08,43,3.10
2016,02,24,08,44,3.20
2016,02,24,08,45,3.20
2016,02,24,08,46,3.30
2016,02,24,08,47,3.30
2016,02,24,08,48,3.40
2016,02,24,08,49,3.40
2016,02,24,08,50,3.50
2016,02,24,08,51,3.60
2016,02,24,08,52,3.60
2016,02,24,08,53,3.70
2016,02,24,08,54,3.70
2016,02,24,08,55,3.80
2016,02,24,08,56,3.90
2016,02,24,08,57,3.90
2016,02,24,08,58,4.00
2016,02,24,08,59,4.00
2016,02,24,09,00,4.10
2016,02,24,09,01,4.10
2016,02,24,09,02,4.20
2016,02,24,09,03,4.30
2016,02,24,09,04,4.30
2016,02,24,09,05,4.40
2016,02,24,09,06,4.40
2016,02,24,09,07,4.50
2016,02,24,09,08,4.60
2016,02,24,09,09,4.60
2016,02,24,09,10,4.70
2016,02,24,09,11,4.70
2016,02,24,09,12,4.70
2016,02,24,09,13,4.80
2016,02,24,09,14,4.80
2016,02,24,09,15,4.80
2016,02,24,09,16,4.90
2016,02,24,09,17,5.00
2016,02,24,09,18,5.00
2016,02,24,09,19,5.10
2016,02,24,09,20,5.10
2016,02,24,09,21,5.20
2016,02,24,09,22,5.20
2016,02,24,09,23,5.30
2016,02,24,09,24,5.30
2016,02,24,09,25,5.30
2016,02,24,09,26,5.30
2016,02,24,09,27,5.30
2016,02,24,09,28,5.40
2016,02,24,09,29,5.40
2016,02,24,09,30,5.40
2016,02,24,09,31,5.40
2016,02,24,09,32,5.40
2016,02,24,09,33,5.40
2016,02,24,09,34,5.50
2016,02,24,09,35,5.50
2016,02,24,09,36,5.50
2016,02,24,09,37,5.60
2016,02,24,09,38,5.60
2016,02,24,09,39,5.60
2016,02,24,09,40,5.70
2016,02,24,09,41,5.70
2016,02,24,09,42,5.70
2016,02,24,09,43,5.70
2016,02,24,09,44,5.80
2016,02,24,09,45,5.80
2016,02,24,09,46,5.80
2016,02,24,09,47,5.90
2016,02,24,09,48,5.90
2016,02,24,09,49,5.90
2016,02,24,09,50,6.00
2016,02,24,09,51,6.00
2016,02,24,09,52,6.10
2016,02,24,09,53,6.10
2016,02,24,09,54,6.20
2016,02,24,09,55,6.20
2016,02,24,09,56,6.20
2016,02,24,09,57,6.30
2016,02,24,09,58,6.40
2016,02,24,09,59,6.40
2016,02,24,10,00,6.40
2016,02,24,10,01,6.60
2016,02,24,10,02,6.80
2016,02,24,10,03,6.90
2016,02,24,10,04,7.00
2016,02,24,10,05,7.00
2016,02,24,10,06,7.30
2016,02,24,10,07,7.40
2016,02,24,10,08,7.40
2016,02,24,10,09,7.50
2016,02,24,10,10,7.60
2016,02,24,10,11,7.70
2016,02,24,10,12,7.80
2016,02,24,10,13,7.90
2016,02,24,10,14,8.00
2016,02,24,10,15,8.20
2016,02,24,10,16,8.30
2016,02,24,10,17,8.30
2016,02,24,10,18,8.40
2016,02,24,10,19,8.50
2016,02,24,10,20,8.60
2016,02,24,10,21,8.70
2016,02,24,10,22,8.70
2016,02,24,10,23,8.80
2016,02,24,10,24,8.80
2016,02,24,10,25,8.80
2016,02,24,10,26,8.90
2016,02,24,10,27,8.90
2016,02,24,10,28,8.90
2016,02,24,10,29,8.90
2016,02,24,10,30,9.00
2016,02,24,10,31,9.00
2016,02,24,10,32,9.00
2016,02,24,10,33,9.00
2016,02,24,10,34,9.00
2016,02,24,10,35,9.00
2016,02,24,10,36,9.10
2016,02,24,10,37,9.10
2016,02,24,10,38,9.10
2016,02,24,10,39,9.00
2016,02,24,10,40,9.00
2016,02,24,10,41,8.90
2016,02,24,10,42,8.90
2016,02,24,10,43,8.80
2016,02,24,10,44,8.70
2016,02,24,10,45,8.60
2016,02,24,10,46,8.50
2016,02,24,10,47,8.50
2016,02,24,10,48,8.40
2016,02,24,10,49,8.30
2016,02,24,10,50,8.20
2016,02,24,10,51,8.20
2016,02,24,10,52,8.10
2016,02,24,10,53,8.10
2016,02,24,10,54,8.10
2016,02,24,10,55,8.10
2016,02,24,10,56,8.10
2016,02,24,10,57,8.10
2016,02,24,10,58,8.10
2016,02,24,10,59,8.10
2016,02,24,11,00,8.10
2016,02,24,11,01,8.10
2016,02,24,11,02,8.20
2016,02,24,11,03,8.20
2016,02,24,11,04,8.30
2016,02,24,11,05,8.30
2016,02,24,11,06,8.40
2016,02,24,11,07,8.40
2016,02,24,11,08,8.50
2016,02,24,11,09,8.50
2016,02,24,11,10,8.60
2016,02,24,11,11,8.60
2016,02,24,11,12,8.70
2016,02,24,11,13,8.70
2016,02,24,11,14,8.80
2016,02,24,11,15,8.80
2016,02,24,11,16,8.90
2016,02,24,11,17,9.00
2016,02,24,11,18,9.10
2016,02,24,11,19,9.20
2016,02,24,11,20,9.40
2016,02,24,11,21,9.60
2016,02,24,11,22,9.70
2016,02,24,11,23,9.80
2016,02,24,11,24,9.80
2016,02,24,11,25,9.90
2016,02,24,11,26,9.90
2016,02,24,11,27,9.90
2016,02,24,11,28,10.00
2016,02,24,11,29,10.00
2016,02,24,11,30,10.20
2016,02,24,11,31,10.30
2016,02,24,11,32,10.30
2016,02,24,11,33,10.30
2016,02,24,11,34,10.30
2016,02,24,11,35,10.30
2016,02,24,11,36,10.30
2016,02,24,11,37,10.30
2016,02,24,11,38,10.30
2016,02,24,11,39,10.40
2016,02,24,11,40,10.40
2016,02,24,11,41,10.40
2016,02,24,11,42,10.40
2016,02,24,11,43,10.50
2016,02,24,11,44,10.50
2016,02,24,11,45,10.60
2016,02,24,11,46,10.70
2016,02,24,11,47,10.70
2016,02,24,11,48,10.80
2016,02,24,11,49,10.80
2016,02,24,11,50,10.80
2016,02,24,11,51,10.80
2016,02,24,11,52,10.80
2016,02,24,11,53,10.60
2016,02,24,11,54,10.50
2016,02,24,11,55,10.40
2016,02,24,11,56,10.40
2016,02,24,11,57,10.40
2016,02,24,11,58,10.30
2016,02,24,11,59,10.30
2016,02,24,12,00,10.40
2016,02,24,12,01,10.40
2016,02,24,12,02,10.40
2016,02,24,12,03,10.50
2016,02,24,12,04,10.50
2016,02,24,12,05,10.50
2016,02,24,12,06,10.50
2016,02,24,12,07,10.40
2016,02,24,12,08,10.40
2016,02,24,12,09,10.40
2016,02,24,12,10,10.40
2016,02,24,12,11,10.40
2016,02,24,12,12,10.40
2016,02,24,12,13,10.40
2016,02,24,12,14,10.40
2016,02,24,12,15,10.30
2016,02,24,12,16,10.30
2016,02,24,12,17,10.40
2016,02,24,12,18,10.40
2016,02,24,12,19,10.50
2016,02,24,12,20,10.50
2016,02,24,12,21,10.40
2016,02,24,12,22,10.40
2016,02,24,12,23,10.40
2016,02,24,12,24,10.40
2016,02,24,12,25,10.40
2016,02,24,12,26,10.40
2016,02,24,12,27,10.50
2016,02,24,12,28,10.40
2016,02,24,12,29,10.50
2016,02,24,12,30,10.60
2016,02,24,12,31,10.60
2016,02,24,12,32,10.60
2016,02,24,12,33,10.60
2016,02,24,12,34,10.60
2016,02,24,12,35,10.60
2016,02,24,12,36,10.70
2016,02,24,12,37,10.70
2016,02,24,12,38,10.60
2016,02,24,12,39,10.60
2016,02,24,12,40,10.60
2016,02,24,12,41,10.60
2016,02,24,12,42,10.60
2016,02,24,12,43,10.60
2016,02,24,12,44,10.60
2016,02,24,12,45,10.60
2016,02,24,12,46,10.70
2016,02,24,12,47,10.80
2016,02,24,12,48,10.80
2016,02,24,12,49,10.90
2016,02,24,12,50,10.90
2016,02,24,12,51,10.80
2016,02,24,12,52,10.80
2016,02,24,12,53,10.80
2016,02,24,12,54,10.90
2016,02,24,12,55,11.00
2016,02,24,12,56,11.10
2016,02,24,12,57,11.20
2016,02,24,12,58,11.20
2016,02,24,12,59,11.20
2016,02,24,13,00,11.20
2016,02,24,13,01,11.20
2016,02,24,13,02,11.20
2016,02,24,13,03,11.10
2016,02,24,13,04,11.10
2016,02,24,13,05,11.10
2016,02,24,13,06,11.10
2016,02,24,13,07,11.10
2016,02,24,13,08,11.20
2016,02,24,13,09,11.30
2016,02,24,13,10,11.40
2016,02,24,13,11,11.50
2016,02,24,13,12,11.60
2016,02,24,13,13,11.60
2016,02,24,13,14,11.70
2016,02,24,13,15,11.70
2016,02,24,13,16,11.70
2016,02,24,13,17,11.70
2016,02,24,13,18,11.70
2016,02,24,13,19,11.70
2016,02,24,13,20,11.70
2016,02,24,13,21,11.70
2016,02,24,13,22,11.60
2016,02,24,13,23,11.50
2016,02,24,13,24,11.40
2016,02,24,13,25,11.40
2016,02,24,13,26,11.50
2016,02,24,13,27,11.50
2016,02,24,13,28,11.50
2016,02,24,13,29,11.50
2016,02,24,13,30,11.50
2016,02,24,13,31,11.60
2016,02,24,13,32,11.60
2016,02,24,13,33,11.60
2016,02,24,13,34,11.60
2016,02,24,13,35,11.60
2016,02,24,13,36,11.60
2016,02,24,13,37,11.60
2016,02,24,13,38,11.60
2016,02,24,13,39,11.60
2016,02,24,13,40,11.70
2016,02,24,13,41,11.70
2016,02,24,13,42,11.70
2016,02,24,13,43,11.70
2016,02,24,13,44,11.70
2016,02,24,13,45,11.70
2016,02,24,13,46,11.70
2016,02,24,13,47,11.70
2016,02,24,13,48,11.60
2016,02,24,13,49,11.60
2016,02,24,13,50,11.60
2016,02,24,13,51,11.50
2016,02,24,13,52,11.50
2016,02,24,13,53,11.40
2016,02,24,13,54,11.40
2016,02,24,13,55,11.40
2016,02,24,13,56,11.30
2016,02,24,13,57,11.30
2016,02,24,13,58,11.20
2016,02,24,13,59,11.10
2016,02,24,14,00,11.10
2016,02,24,14,01,11.20
2016,02,24,14,02,11.20
2016,02,24,14,03,11.20
2016,02,24,14,04,11.40
2016,02,24,14,05,11.50
2016,02,24,14,06,11.50
2016,02,24,14,07,11.50
2016,02,24,14,08,11.50
2016,02,24,14,09,11.40
2016,02,24,14,10,11.40
2016,02,24,14,11,11.40
2016,02,24,14,12,11.30
2016,02,24,14,13,11.30
2016,02,24,14,14,11.20
2016,02,24,14,15,11.20
2016,02,24,14,16,11.20
2016,02,24,14,17,11.10
2016,02,24,14,18,11.10
2016,02,24,14,19,11.10
2016,02,24,14,20,11.10
2016,02,24,14,21,11.10
2016,02,24,14,22,11.10
2016,02,24,14,23,11.00
2016,02,24,14,24,11.00
2016,02,24,14,25,10.90
2016,02,24,14,26,10.90
2016,02,24,14,27,10.90
2016,02,24,14,28,10.80
2016,02,24,14,29,10.80
2016,02,24,14,30,10.70
2016,02,24,14,31,10.60
2016,02,24,14,32,10.50
2016,02,24,14,33,10.50
2016,02,24,14,34,10.40
2016,02,24,14,35,10.40
2016,02,24,14,36,10.50
2016,02,24,14,37,10.50
2016,02,24,14,38,10.50
2016,02,24,14,39,10.50
2016,02,24,14,40,10.60
2016,02,24,14,41,10.60
2016,02,24,14,42,10.60
2016,02,24,14,43,10.60
2016,02,24,14,44,10.60
2016,02,24,14,45,10.60
2016,02,24,14,46,10.60
2016,02,24,14,47,10.60
2016,02,24,14,48,10.60
2016,02,24,14,49,10.50
2016,02,24,14,50,10.50
2016,02,24,14,51,10.50
2016,02,24,14,52,10.50
2016,02,24,14,53,10.50
2016,02,24,14,54,10.50
2016,02,24,14,55,10.40
2016,02,24,14,56,10.40
2016,02,24,14,57,10.40
2016,02,24,14,58,10.40
2016,02,24,14,59,10.40
2016,02,24,15,00,10.40
2016,02,24,15,01,10.50
2016,02,24,15,02,10.40
2016,02,24,15,03,10.50
2016,02,24,15,04,10.50
2016,02,24,15,05,10.60
2016,02,24,15,06,10.60
2016,02,24,15,07,10.60
2016,02,24,15,08,10.70
2016,02,24,15,09,10.70
2016,02,24,15,10,10.70
2016,02,24,15,11,10.70
2016,02,24,15,12,10.70
2016,02,24,15,13,10.80
2016,02,24,15,14,10.80
2016,02,24,15,15,10.90
2016,02,24,15,16,10.90
2016,02,24,15,17,10.90
2016,02,24,15,18,10.90
2016,02,24,15,19,10.90
2016,02,24,15,20,10.90
2016,02,24,15,21,10.90
2016,02,24,15,22,11.00
2016,02,24,15,23,11.00
2016,02,24,15,24,11.00
2016,02,24,15,25,11.00
2016,02,24,15,26,11.00
2016,02,24,15,27,10.90
2016,02,24,15,28,10.90
2016,02,24,15,29,10.90
2016,02,24,15,30,11.00
2016,02,24,15,31,11.00
2016,02,24,15,32,11.00
2016,02,24,15,33,11.10
2016,02,24,15,34,11.10
2016,02,24,15,35,11.10
2016,02,24,15,36,11.10
2016,02,24,15,37,11.10
2016,02,24,15,38,11.10
2016,02,24,15,39,11.10
2016,02,24,15,40,11.10
2016,02,24,15,41,11.10
2016,02,24,15,42,11.10
2016,02,24,15,43,11.10
2016,02,24,15,44,11.20
2016,02,24,15,45,11.20
2016,02,24,15,46,11.20
2016,02,24,15,47,11.20
2016,02,24,15,48,11.30
2016,02,24,15,49,11.30
2016,02,24,15,50,11.40
2016,02,24,15,51,11.40
2016,02,24,15,52,11.40
2016,02,24,15,53,11.40
2016,02,24,15,54,11.50
2016,02,24,15,55,11.50
2016,02,24,15,56,11.60
2016,02,24,15,57,11.50
2016,02,24,15,58,11.50
2016,02,24,15,59,11.50
2016,02,24,16,00,11.40
2016,02,24,16,01,11.40
2016,02,24,16,02,11.40
2016,02,24,16,03,11.30
2016,02,24,16,04,11.30
2016,02,24,16,05,11.30
2016,02,24,16,06,11.30
2016,02,24,16,07,11.20
2016,02,24,16,08,11.20
2016,02,24,16,09,11.10
2016,02,24,16,10,11.10
2016,02,24,16,11,11.10
2016,02,24,16,12,11.00
2016,02,24,16,13,11.00
2016,02,24,16,14,11.00
2016,02,24,16,15,11.00
2016,02,24,16,16,11.00
2016,02,24,16,17,11.00
2016,02,24,16,18,11.00
2016,02,24,16,19,11.00
2016,02,24,16,20,11.00
2016,02,24,16,21,10.90
2016,02,24,16,22,10.90
2016,02,24,16,23,10.90
2016,02,24,16,24,10.90
2016,02,24,16,25,10.90
2016,02,24,16,26,10.90
2016,02,24,16,27,10.90
2016,02,24,16,28,10.90
2016,02,24,16,29,10.90
2016,02,24,16,30,10.90
2016,02,24,16,31,10.90
2016,02,24,16,32,10.90
2016,02,24,16,33,10.80
2016,02,24,16,34,10.80
2016,02,24,16,35,10.80
2016,02,24,16,36,10.80
2016,02,24,16,37,10.80
2016,02,24,16,38,10.80
2016,02,24,16,39,10.70
2016,02,24,16,40,10.70
2016,02,24,16,41,10.70
2016,02,24,16,42,10.70
2016,02,24,16,43,10.60
2016,02,24,16,44,10.60
2016,02,24,16,45,10.70
2016,02,24,16,46,10.70
2016,02,24,16,47,10.70
2016,02,24,16,48,10.70
2016,02,24,16,49,10.70
2016,02,24,16,50,10.70
2016,02,24,16,51,10.80
2016,02,24,16,52,10.80
2016,02,24,16,53,10.80
2016,02,24,16,54,10.80
2016,02,24,16,55,10.80
2016,02,24,16,56,10.80
2016,02,24,16,57,10.80
2016,02,24,16,58,10.80
2016,02,24,16,59,10.70
2016,02,24,17,00,10.70
2016,02,24,17,01,10.70
2016,02,24,17,02,10.60
2016,02,24,17,03,10.60
2016,02,24,17,04,10.60
2016,02,24,17,05,10.60
2016,02,24,17,06,10.50
2016,02,24,17,07,10.50
2016,02,24,17,08,10.50
2016,02,24,17,09,10.40
2016,02,24,17,10,10.40
2016,02,24,17,11,10.30
2016,02,24,17,12,10.30
2016,02,24,17,13,10.20
2016,02,24,17,14,10.20
2016,02,24,17,15,10.10
2016,02,24,17,16,10.10
2016,02,24,17,17,10.10
2016,02,24,17,18,10.10
2016,02,24,17,19,10.00
2016,02,24,17,20,10.00
2016,02,24,17,21,9.90
2016,02,24,17,22,9.90
2016,02,24,17,23,9.90
2016,02,24,17,24,9.80
2016,02,24,17,25,9.80
2016,02,24,17,26,9.80
2016,02,24,17,27,9.70
2016,02,24,17,28,9.70
2016,02,24,17,29,9.60
2016,02,24,17,30,9.60
2016,02,24,17,31,9.50
2016,02,24,17,32,9.50
2016,02,24,17,33,9.40
2016,02,24,17,34,9.40
2016,02,24,17,35,9.30
2016,02,24,17,36,9.30
2016,02,24,17,37,9.20
2016,02,24,17,38,9.20
2016,02,24,17,39,9.10
2016,02,24,17,40,9.10
2016,02,24,17,41,9.10
2016,02,24,17,42,9.00
2016,02,24,17,43,8.90
2016,02,24,17,44,8.90
2016,02,24,17,45,8.90
2016,02,24,17,46,8.80
2016,02,24,17,47,8.80
2016,02,24,17,48,8.70
2016,02,24,17,49,8.70
2016,02,24,17,50,8.60